Location: Bruch
(44.2051°N, 0.4120°E)
Time: 05:29:39
(UTC+00:00)

ATLAS 3B R/B - Pass Details

Date: 29 November 2020
Orbit: 1013 x 1182 km, 63.8° (Epoch: 08 January)

Event Time Altitude Azimuth Distance (km) Brightness Sun altitude
Exits shadow 05:17:52 21° 324° (NW) 2,219 3.9 -19.9°
Maximum altitude 05:22:49 90° 26° (NNE) 1,116 2.7 -19.0°
Drops below altitude 10° 05:30:03 10° 146° (SE) 3,027 5.7 -17.7°
Sets 05:32:47 0° 146° (SE) 4,004 6.5 -17.3°
